Flag for Germany Weather past 2 weeks in Melle, Lower Saxony, Germany

Now
57 °F

Clear.


Feels Like: 57 °F
Forecast: 38 / 67 °F
Wind: 1 mph from North

Location: Muenster / Osnabrueck

Current Time: May 23, 2015 at 3:17:39 AM

Latest Report: May 23, 2015 at 2:50 AM


Visibility: 10 mi

Pressure: 30.15 "Hg

Humidity: 77%

Dew point: 50 °F

Location of MelleLocation

Historic Weather in Melle — Graph

°F

Melle temperature yesterday

Maximum temperature yesterday: 68 °F (at 4:50 PM)
Minimum temperature yesterday: 43 °F (at 5:20 AM)
Average temperature yesterday: 58 °F

Past Weeks' High & Low Weather Summary

 TemperatureHumidityPressure
High77 °F (May 11, 3:20 PM)100% (May 8, 2:50 AM)30.33 "Hg (May 8, 2:50 AM)
Low37 °F (May 16, 5:20 AM)32% (May 11, 3:50 PM)29.59 "Hg (May 18, 7:20 PM)
Average55 °F69%30.05 "Hg
* Reported May 8 2:20 AM — May 23 2:20 AM, Melle, Weather by CustomWeather, © 2015

Note: Actual official high and low records may vary slightly from our data, if they occured in-between our weather recording intervals... More about our weather records

Advertising

Melle weather history for previous 24 hours

 ConditionsComfort  
Time TempWeatherWind HumidityBarometerVisibility
2:20 AM
Sat, May 23
57 °FClear.2 mph77%30.18 "Hg10 mi
1:50 AM59 °FClear.3 mph72%30.18 "Hg10 mi
1:20 AM59 °FClear.3 mph72%30.18 "Hg10 mi
12:50 AM59 °FClear.3 mph72%30.18 "Hg10 mi
12:20 AM59 °FClear.3 mph72%30.18 "Hg10 mi
11:50 PM
Fri, May 22
59 °FClear.6 mph72%30.18 "Hg10 mi
11:20 PM59 °FClear.5 mph72%30.18 "Hg10 mi
10:50 PM61 °FClear.5 mph63%30.18 "Hg10 mi
10:20 PM61 °FSunny.5 mph63%30.18 "Hg10 mi
9:50 PM61 °FSunny.2 mph63%30.18 "Hg10 mi
9:20 PM63 °FSunny.2 mph59%30.18 "Hg10 mi
8:50 PM64 °FSunny.2 mph52%30.18 "Hg10 mi
8:20 PM64 °FSunny.3 mph52%30.18 "Hg10 mi
7:50 PM66 °FSunny.6 mph46%30.18 "Hg10 mi
7:20 PM66 °FSunny.7 mph43%30.18 "Hg10 mi
6:50 PM66 °FSunny.6 mph43%30.18 "Hg10 mi
6:20 PM66 °FSunny.6 mph46%30.18 "Hg10 mi
5:50 PM66 °FSunny.7 mph43%30.21 "Hg10 mi
5:20 PM66 °FSunny.8 mph43%30.21 "Hg10 mi
4:50 PM68 °FPassing clouds.8 mph38%30.21 "HgN/A
4:20 PM66 °FScattered clouds.6 mph43%30.21 "HgN/A
3:50 PM66 °FScattered clouds.7 mph46%30.21 "HgN/A
3:20 PM66 °FScattered clouds.7 mph43%30.24 "HgN/A
2:50 PM66 °FScattered clouds.9 mph43%30.24 "HgN/A
2:20 PM64 °FScattered clouds.9 mph49%30.24 "HgN/A
1:50 PM66 °FPartly sunny.8 mph43%30.27 "HgN/A
1:20 PM64 °FPartly sunny.8 mph46%30.27 "HgN/A
12:50 PM64 °FScattered clouds.8 mph49%30.27 "HgN/A
12:20 PM63 °FScattered clouds.7 mph49%30.27 "HgN/A
11:50 AM63 °FPartly sunny.8 mph52%30.30 "HgN/A
11:20 AM61 °FPartly sunny.9 mph52%30.30 "HgN/A
10:50 AM61 °FSunny.9 mph52%30.30 "Hg10 mi
10:20 AM59 °FSunny.9 mph59%30.30 "Hg10 mi
9:50 AM59 °FPartly sunny.8 mph63%30.30 "HgN/A
9:20 AM55 °FPartly sunny.6 mph72%30.30 "HgN/A
8:50 AM54 °FPartly sunny.5 mph77%30.33 "HgN/A
8:20 AM54 °FPartly sunny.6 mph77%30.33 "HgN/A
7:50 AM52 °FPartly sunny.3 mph82%30.30 "HgN/A
7:20 AM48 °FPartly sunny.3 mph87%30.30 "HgN/A
6:50 AM46 °FPartly sunny.2 mph93%30.30 "HgN/A
6:20 AM46 °FPassing clouds.2 mph100%30.30 "HgN/A
5:50 AM45 °FFog.2 mph100%30.30 "HgN/A
5:20 AM43 °FFog.2 mph100%30.30 "HgN/A
4:50 AM45 °FFog.2 mph100%30.30 "HgN/A
4:20 AM45 °FClear.1 mph100%30.30 "Hg10 mi
3:50 AM45 °FClear.1 mph93%30.30 "Hg10 mi
3:20 AM46 °FClear.1 mph93%30.33 "Hg10 mi
Weather by CustomWeather, © 2015

See weather overviewHow to use our weather pages